CZ-3C R/B (44232 NORAD) Tracking and Keplerian Element Data

This shows tracking and keplerian element data for the satellite.

Feedback or suggestion? Click here.




ElementValue
Catalog44232
NameCZ-3C R/B
Epoch Orbit71
Epoch Day166.84267784
Epoch Year2019
RAAN98.7748
Inclination19.461
Eccentricity0.7222763
Argument of Perigee201.1205
Mean Anonmoly98.5655
Mean Motion2.37653736
Decay Rate4.046E-05
L11 44232U 19027B 19166.84267784 .00004046 00000-0 46031-3 0 9994
L22 44232 19.4610 98.7748 7222763 201.1205 98.5655 2.37653736 719

Live tracking and technical data element details for CZ-3C R/B (NORAD 44232). CZ-3C R/B can be tracked NOW for your location showing map with azimuth and elevation plus other details from your city location.

Track the satellite on the map from your city or location and see movement details for azimuth, elevation, latitude, longitude, range, height, and movement on the map or in text.







IsCatalogInMostPopularTable: catalog: 44232, numindb: 14
Update: records affected: 1



GetName: 44232 CZ-3C R/B

Hit Count: updated at: Sun, 21 Jul 2019 21:34:22 GMT